Weather in Kumareyka

Russia / Irkutsk Oblast     54°28′41″N   102°59′09″E
temp.,
°C
wind,
m/s
gust,
m/s
humid.,
%
clouds,
%
prec.,
mm/h
press.,
hPa
HPBL,
m
27 february, sat
sat2723:00−21wnw1196100 0.0 103020
02:00−21wsw1198100 0.1 103120
05:00−21wnw41288100 0.2 1034648
08:00−25wnw2890100 0.2 1038306
11:00−22nw4877100 0.0 1039984
14:00−20w3582100 0.0 10381037
17:00−20wsw2482100 0.1 1037885
20:00−26sw119494 0.1 103920
28 february, sun
sun2823:00−25s2296100 0.0 104028
02:00−26sse2298100 0.0 104036
05:00−25s2295100 0.1 104043
08:00−24sw1198100 0.1 104020
11:00−21s2292100 0.0 1040230
14:00−18sw2377100 0.0 1039980
17:00−17ssw2386100 0.1 1039630
20:00−23s229498 0.1 103922
1 march, mon
mon123:00−23s2289100 0.0 103933
02:00−23sse2295100 0.0 103752
05:00−23s2396100 0.0 103485
08:00−24s2298100 0.0 103336
11:00−20sse2496100 0.0 1029247
14:00−16sse2485100 0.0 1025371
17:00−16s238798 0.0 1021302
20:00−19s119099 0.0 101920
2 march, tue
tue223:00−19s1191100 0.0 101720
02:00−17se1198100 0.1 101523
05:00−17sse1198100 0.3 101321
08:00−17s1198100 0.4 101220
11:00−13wnw1191100 0.2 1012293
14:00−11nnw2490100 0.4 1013578
17:00−12nnw3588100 0.2 1015689
20:00−17nnw3796100 0.2 1018298
3 march, wed
wed323:00−21nnw2298100 0.0 102168
02:00−24nnw229797 0.0 102234
05:00−27n229792 0.0 102432
08:00−30n229790 0.0 102523
11:00−24nne238990 0.0 1024229
14:00−19nne237792 0.0 1023522
17:00−19nne348499 0.0 1022529
20:00−23n249398 0.0 1024113